Weather in Kamen-Kashirsky

Ukraine / Volyn Oblast     51°37′11″N   24°57′54″E
temp.,
°C
wind,
m/s
gust,
m/s
humid.,
%
clouds,
%
prec.,
mm/h
press.,
hPa
HPBL,
m
2 july, sat
sat200:00+22ese411565 0.0 1016278
03:00+21ese4126683 0.0 1017322
06:00+20ese4116116 0.0 1018309
09:00+25se48499 0.0 1018507
12:00+30se453852 0.0 10181518
15:00+32sse433482 0.0 10182733
18:00+30se454398 0.0 10181529
21:00+22w4886100 0.6 1018215
3 july, sun
sun300:00+18wnw4797100 4.7 1019321
03:00+17wnw3798100 10.6 1019486
06:00+17w2498100 1.9 1019337
09:00+17w359597 1.9 1019384
12:00+20w347875 0.1 1019687
15:00+23wnw226750 0.1 1019987
18:00+22wnw337182 0.1 1018671
21:00+20nw118169 0.1 101817
4 july, mon
mon400:00+17s119064 0.0 101811
03:00+16s2290100 0.0 101835
06:00+16s229245 0.0 101740
09:00+22ssw236695 0.0 1017473
12:00+27sw22474 0.0 10161637
15:00+27w435192 0.0 10161564
18:00+27nw33505 0.0 10151067
21:00+23ne1168100 0.0 101512
5 july, tue
tue500:00+20ne117692 0.0 101611
03:00+18sse1181100 0.0 101611
06:00+18ese018162 0.0 101611
09:00+25s115793 0.0 1016423
12:00+28nw2244100 0.0 10161678
15:00+24nnw7764100 0.3 1016643
18:00+20n5891100 4.4 1017443
21:00+18nne3897100 7.3 1017363
6 july, wed
wed600:00+17n1398100 0.0 1018117
03:00+15nne3897100 0.6 1018307
06:00+15n2598100 0.1 1018203
09:00+16ne259230 2.3 1018338
12:00+23n235239 0.0 10191395
15:00+25nnw243998 0.0 10172484
18:00+25nw244118 0.0 10172048
21:00+19wnw226428 0.0 101843